Location: Zagreb
(45.8000°N, 16.0000°E)
Time: 14:57:16
(UTC+02:00)

SR - Visible Passes

Search period start: 19 July 2024 00:00
Search period end: 29 July 2024 00:00
Orbit: 581 x 856 km, 66.7° (Epoch: 18 July)

Date Brightness Start Highest point End Pass type
(mag) Time Alt. Az. Time Alt. Az. Time Alt. Az.
19 Jul ? 04:11:43 10° SSW 04:16:11 50° ESE 04:20:26 10° NE visible
20 Jul ? 03:20:52 13° SSE 03:23:53 23° ESE 03:27:23 10° ENE visible
21 Jul ? 02:31:14 10° ESE 02:31:45 10° ESE 02:32:17 10° E visible
21 Jul ? 04:09:11 15° SSW 04:12:55 87° ESE 04:17:17 10° NNE visible
22 Jul ? 03:18:13 23° S 03:20:31 39° ESE 03:24:35 10° NE visible
23 Jul ? 02:27:13 17° SE 02:28:15 18° ESE 02:31:15 10° ENE visible
23 Jul ? 04:06:25 18° SW 04:09:42 56° NW 04:13:58 10° NNE visible
24 Jul ? 03:15:22 35° SSW 03:17:10 68° ESE 03:21:29 10° NE visible
25 Jul ? 02:24:16 29° SE 02:24:47 30° ESE 02:28:38 10° NE visible
25 Jul ? 04:03:28 16° WSW 04:06:32 34° NW 04:10:29 10° NNE visible
26 Jul ? 01:33:07 14° E 01:33:07 14° E 01:34:51 10° ENE visible
26 Jul ? 03:12:19 39° SW 03:13:52 71° NW 03:18:11 10° NNE visible
26 Jul ? 04:54:23 10° WNW 04:56:26 13° NW 04:58:29 10° N visible
27 Jul ? 02:21:08 52° SE 02:21:22 52° ESE 02:25:36 10° NE visible
27 Jul ? 04:00:20 12° W 04:03:26 22° NW 04:06:51 10° N visible
28 Jul ? 01:29:54 22° E 01:29:54 22° E 01:32:32 10° ENE visible
28 Jul ? 03:09:06 31° W 03:10:37 42° NW 03:14:44 10° NNE visible
